Weather Roundup
Issued by NWS Chicago, IL

Home | Current Version | Previous Version | Text Only | Print | Product List | Glossary On
Versions: 1 2 3 4 5 6 7 8 9 10 11 12 13 14 15 16 17 18 19 20 21 22 23 24 25 26 27 28 29 30 31 32 33 34 35 36 37 38 39 40 41 42 43 44 45 46 47 48 49 50
000
NZUS59 KLOT 200308
HRRLOT

CHICAGO AREA WEATHER ROUNDUP
NATIONAL WEATHER SERVICE CHICAGO/ROMEOVILLE IL
1000 PM CDT SAT AUG 19 2017

NOTE: "FAIR" INDICATES FEW OR NO CLOUDS BELOW 12,000 FEET WITH NO
SIGNIFICANT WEATHER AND/OR OBSTRUCTIONS TO VISIBILITY.

* THESE STATIONS ARE NOT UNDER NWS QUALITY CONTROL. THEY ALSO MAY NOT
  REPORT WEATHER SUCH AS PRECIPITATION OR FOG.

ILZ005-006-012>014-019>023-200400-
NORTHEAST ILLINOIS

CITY           SKY/WX    TMP DP  RH WIND       PRES   REMARKS
OHARE          CLEAR     71  54  54 SE7       29.97R
MIDWAY         CLEAR     75  56  51 SE6       29.97R
AURORA         CLEAR     63  62  97 CALM      29.98R
LANSING*       CLEAR     68  55  62 CALM      29.98S
JOLIET*        CLEAR     66  62  85 CALM      29.97S
WAUKEGAN       CLEAR     65  62  90 CALM      29.97R
DUPAGE AIRPORT CLEAR     67  62  84 CALM      29.97R
WHEELING       CLEAR     68  60  75 CALM      29.99R
MORRIS*        CLEAR     69  59  70 CALM      29.97R
LEWIS AIRPORT* CLEAR     70  56  62 CALM      29.98S
NORTHERLY ISL    N/A     72  62  71 E7          N/A
$$

WIZ051-052-058>065-066-070>072-200400-
SOUTHEAST WISCONSIN

CITY           SKY/WX    TMP DP  RH WIND       PRES   REMARKS
MILWAUKEE      CLEAR     72  62  71 SW5       29.97R
KENOSHA*       CLEAR     68  59  73 S6        29.98R
RACINE*        CLEAR     66  62  87 S3        29.99R
WEST BEND      CLEAR     63  63 100 CALM      29.97S
$$

INZ001>003-010>013-019-020-200400-
NORTHWEST INDIANA

CITY           SKY/WX    TMP DP  RH WIND       PRES   REMARKS
GARY*          CLEAR     63  57  82 VRB3      29.98R
MICHIGAN CITY* NOT AVBL
RENSSELAER*    NOT AVBL
VALPARAISO     CLEAR     64  59  83 NE3       29.99S
$$

LMZ740>746-200400-
SOUTHERN LAKE MICHIGAN

STATION/POSITION TIME  SKY/WX   TEMP WIND        PRES    VSBY
                                AIR  DIR/SP/G
                 (UTC)          (F)  (DEG/KT/KT) (MB)    (MI)
HARRISON CRIB    0240            74  150/  9/ 10   N/A
BURNHAM HARBOR   NOT AVBL
CALUMET HARBOR   0242            75  120/  3/  6 1014.5R
BURNS HARBOR     0301            74  100/  8/  9 1015.6
MICHIGAN CITY    0240            70  110/  3/  4   N/A
$$

ABBREVIATIONS USED IN REMARKS
   TC - TEMPERATURE IN CELSIUS
  WCI - WIND CHILL INDEX
   HX - HEAT INDEX
  VSB - VISIBILITY
$$




USA.gov is the U.S. government's official web portal to all federal, state and local government web resources and services.